[Iaude] MPEC E10: 2024 EB [a=1.21,e=0.19,i=10.0,H=26.0]
    mpec at cfa.harvard.edu 
    mpec at cfa.harvard.edu
       
    Sat Mar  2 04:07:49 EST 2024
    
    
  
M.P.E.C. 2024-E10                                 Issued 2024 March 2, 09:06 UT
     The Minor Planet Electronic Circulars contain information on unusual
         minor planets, routine data on comets and natural satellites,
         and occasional editorial announcements.  They are published
    on behalf of Division F of the International Astronomical Union by the
          Minor Planet Center, Smithsonian Astrophysical Observatory,
                          Cambridge, MA 02138, U.S.A.
			  
             Prepared using the Tamkin Foundation Computer Network
                              MPC at CFA.HARVARD.EDU
            URL https://www.minorplanetcenter.net/    ISSN 1523-6714
                                    2024 EB                                     
Observations:
     K24E00B*1C2024 03 01.29392110 01 27.314+33 51 01.48         18.18GVEE010703
     K24E00B 1C2024 03 01.29629010 01 30.713+33 52 39.83         17.83GVEE010703
     K24E00B 1C2024 03 01.29861710 01 34.122+33 54 17.78         18.18GVEE010703
     K24E00B 1C2024 03 01.30093910 01 37.542+33 55 55.02         18.47GVEE010703
     K24E00B KB2024 03 01.82793 10 18 26.91 +40 01 12.5          17.9 GXEE010K19
     K24E00B KB2024 03 01.83009 10 18 31.00 +40 02 45.6          17.7 GXEE010K19
     K24E00B KB2024 03 01.83222 10 18 35.03 +40 04 17.1          18.0 GXEE010K19
     K24E00B KB2024 03 01.87159010 19 46.084+40 31 23.71         18.7 GXEE010B72
     K24E00B KB2024 03 01.87208 10 19 55.138+40 32 54.67         18.5 GXEE010J57
     K24E00B KB2024 03 01.87381 10 19 58.397+40 34 08.44         18.4 GXEE010J57
     K24E00B KB2024 03 01.87571 10 20 02.002+40 35 29.29         18.6 GXEE010J57
     K24E00B KB2024 03 01.87829910 19 58.827+40 36 07.55         18.5 GXEE010B72
     K24E00B KC2024 03 01.89065510 20 26.270+40 44 23.32         18.1 GVEE010J95
     K24E00B KC2024 03 01.89144210 20 27.775+40 44 57.01         17.9 GVEE010J95
     K24E00B KC2024 03 01.89222410 20 29.278+40 45 30.13         17.8 GVEE010J95
     K24E00B KC2024 03 01.89301910 20 30.809+40 46 03.65         18.1 GVEE010J95
     K24E00B KC2024 03 01.90618110 20 49.71 +40 56 41.5          18.0 GVEE010L01
     K24E00B KC2024 03 01.90703410 20 51.28 +40 57 17.3          18.3 GVEE010L01
     K24E00B KC2024 03 01.90930610 20 55.58 +40 58 52.8          18.2 GVEE010L01
     K24E00B KC2024 03 01.91003210 20 56.94 +40 59 23.1          18.0 GVEE010L01
     K24E00B KC2024 03 01.91129910 20 59.32 +41 00 15.9          18.1 GVEE010L01
     K24E00B KC2024 03 01.91205610 21 00.77 +41 00 47.7          18.2 GVEE010L01
     K24E00B KC2024 03 01.96641310 22 43.91 +41 38 18.4          18.0 GXEE010595
     K24E00B KC2024 03 01.97034310 22 59.328+41 40 06.85         18.6 GVEE010Z80
     K24E00B KC2024 03 01.97282710 22 56.21 +41 42 42.3          18.3 GXEE010595
     K24E00B KC2024 03 01.97453910 23 07.416+41 43 01.56         18.5 GVEE010Z80
     K24E00B KC2024 03 01.97913310 23 08.32 +41 47 01.3          18.4 GXEE010595
     K24E00B KC2024 03 02.18884910 31 23.49 +44 10 54.8          19.2 GXEE010858
     K24E00B KC2024 03 02.20767710 32 02.83 +44 23 56.0          18.2 GXEE010858
     K24E00B KC2024 03 02.21375310 32 15.50 +44 28 06.8          18.1 GXEE010858
     K24E00B  C2024 03 02.35310910 37 11.087+46 01 34.65         18.2 GVEE010H01
     K24E00B  C2024 03 02.36113510 37 28.580+46 06 46.85         18.3 GVEE010H01
     K24E00B  C2024 03 02.36698810 37 41.409+46 10 34.07         18.2 GVEE010H01
     K24E00B  C2024 03 02.37397910 37 56.785+46 15 04.56         17.8 GVEE010H01
Observer details:
595 Farra d'Isonzo.  Observer E. Pettarin.  0.61-m f/4.5 reflector + CCD.
703 Catalina Sky Survey.  Observer J. B. Fazekas.  Measurers T. Beuden, V. F.
    Carvajal, D. Fay, J. B. Fazekas, D. C. Fuls, A. R. Gibbs, A. D. Grauer, H.
    Groeller, J. K. Hogan, R. A. Kowalski, S. M. Larson, G. J. Leonard, D.
    Rankin, R. L. Seaman, F. C. Shelly, K. W. Wierzchos.  0.68-m Schmidt + 10K
    CCD.
858 Tebbutt Observatory, Edgewood.  Observer F. B. Zoltowski.  0.16-m f/7
    Refractor + CCD.
B72 Soerth Observatory.  Observer B. Koch.  0.36-m f/7.6 reflector + CMO.
H01 Magdalena Ridge Observatory, Socorro.  Observers W. H. Ryan, E. V. Ryan.
    Measurer W. H. Ryan.  2.4-m f/8.9 Ritchey-Chretien + CCD.
J57 Centro Astronomico Alto Turia, Valencia.  Observer A. Fornas.  Measurers
    A. Fornas, G. Fornas, E. Arce, V. Mas.  0.43-m f/6.8 Reflector CDK + CMO.
J95 Great Shefford.  Observer P. Birtwhistle.  0.41-m f/6.3 Schmidt-Cassegrain
    + CCD.
K19 PASTIS Observatory, Banon.  Observer C. Demeautis.  0.28-m f/2.2 reflector
    + CMO.
L01 Visnjan Observatory, Tican.  Observers K. Korlevic, L. Poropat.  Measurer
    K. Korlevic.  1.0-m f/2.9 reflector + CCD.
Z80 Northolt Branch Observatory.  Observer G. Wells.  0.25-m f/8.0 Ritchey-
    Chretien + CCD.
Orbital elements:
2024 EB                                                  Earth MOID = 0.0154 AU
Epoch 2024 Mar. 31.0 TT = JDT 2460400.5                 MPC                     
M   3.73515              (2000.0)            P               Q                  
n   0.73647213     Peri.   28.47819     -0.98948539     +0.13012199             
a   1.2144095      Node   158.71743     -0.14170096     -0.95962295             
e   0.1861952      Incl.   10.01819     +0.02897420     -0.24938337             
P   1.34           H   26.08          G   0.15           U   6                  
Residuals in seconds of arc
240301 703  0.6+  0.2+    240301 J95  0.1+  0.4-    240301 595  0.1+  0.3-
240301 703  0.2-  0.6-    240301 J95  0.0   0.0     240301 Z80  1.0-  0.9+
240301 703  0.1-  0.0     240301 J95  0.0   0.0     240301 595  0.0   0.2-
240301 703  0.1+  0.2+    240301 J95  0.0   0.2-    240302 858  0.2+  0.4+
240301 K19  0.4+  0.0     240301 L01  0.0   0.2-    240302 858  0.3+  0.1+
240301 K19  0.4+  0.5+    240301 L01  0.4-  0.2-    240302 858  0.2+  0.3-
240301 K19  0.3+  0.7+    240301 L01  0.1-  0.1+    240302 H01  0.1+  0.1+
240301 B72  0.0   0.2+    240301 L01  0.1-  0.0     240302 H01  0.0   0.1-
240301 J57  0.3+  0.7+    240301 L01  0.1-  0.2-    240302 H01  0.1+  0.0
240301 J57  0.2+  0.8+    240301 L01  0.1+  0.1-    240302 H01  0.0   0.0
240301 J57  0.4+  0.7+    240301 595  0.1+  0.3-
240301 B72  0.2-  0.1+    240301 Z80  0.3-  0.2+
Ephemeris:
2024 EB                  a,e,i = 1.21, 0.19, 10                  q = 0.9883
Date    TT    R. A. (2000) Decl.     Delta      r    Elong.  Phase     V
2024 02 01    08 07 22.4 -31 12 31   0.1126  1.0612   130.1    45.3    23.2
...
2024 02 16    08 15 03.8 -26 27 15   0.05725 1.0283   134.0    43.7    21.6
...
2024 02 24    08 39 16.7 -12 20 43   0.02987 1.0142   145.5    33.5    19.9
...
2024 03 01    09 53 34.6 +30 26 13   0.01619 1.0054   153.8    25.8    18.3
2024 03 02    10 23 57.4 +42 01 31   0.01589 1.0041   144.7    34.8    18.5
2024 03 03    11 06 43.9 +52 43 40   0.01642 1.0028   134.1    45.3    18.9
...
2024 03 09    17 04 28.4 +64 35 26   0.03047 0.9963    95.5    82.7    21.4
...
2024 03 17    18 38 02.3 +54 40 38   0.05674 0.9905    83.8    92.9    23.1
...
2024 04 01    19 12 12.6 +48 01 07   0.1058  0.9893    81.6    92.3    24.5
A. U. Tomatic                (C) Copyright 2024 MPC           M.P.E.C. 2024-E10
    
    
More information about the Iaude
mailing list